[[{"header":{"parameterUnit":"m.s-1","parameterCategory":1,"la1":30.2991,"la2":30.254,"lo1":-89.0895,"lo2":-89.0444,"dy":0.0017,"dx":0.0017,"nx":28,"ny":28,"refTime":"2025-11-12T09:00:00:Z","depth":0,"parameterNumber":2,"parameterNumberName":"U-component_of_WINDS"},"data":[0,0,0,0,0,0,0,0,0,0,0,0,0,0,0,0,0,0,0,0,0,0,0,0,0,0,0,0,0,0,0,0,0,0,0,0,0,0,0,0,0,0,0,0,0,0,0,0,0,0,0,0,0,0,0,0,0,0,0.8593,0.8593,0,0.8629,0.863,0.863,0.8638,0.8637,0.8637,0.8637,0.8671,0.8672,0.8673,0,0,0,0,0,0,0,0,0,0,0,0,0,0.8527,0.8528,0.8593,0.8593,0.8594,0.8629,0.863,0.863,0.8638,0.8637,0.8637,0.8637,0.867,0.8672,0.8673,0,0,0,0,0,0,0,0,0,0,0,0,0,0.8559,0.8529,0.8593,0.8602,0.8603,0.8629,0.863,0.863,0.8638,0.8637,0.8637,0.8637,0.867,0.8671,0.8673,0.8691,0,0,0.8678,0.8679,0,0,0,0,0,0,0,0,0.8557,0.8561,0.86,0.8601,0.8603,0.8629,0.8619,0.8651,0.8638,0.8624,0.8637,0.8636,0.8657,0.8659,0.8667,0.8693,0.8694,0.8679,0.868,0.868,0.8681,0,0,0,0,0,0,0,0.8555,0.856,0.8607,0.86,0.8602,0.8603,0.8607,0.8625,0.8642,0.8626,0.8626,0.8631,0.8657,0.8665,0.8668,0.8695,0.8678,0.868,0.8681,0.8682,0.8739,0.874,0,0,0,0,0,0,0.8551,0.8558,0.8606,0.8608,0.8578,0.8605,0.8609,0.862,0.8642,0.8645,0.8631,0.8631,0.8663,0.8666,0.8669,0.8693,0.868,0.8682,0.8683,0.8739,0.8739,0.874,0,0,0,0,0,0,0.855,0.8556,0.8604,0.8583,0.8589,0.8606,0.8619,0.8621,0.863,0.8646,0.8649,0.8636,0.8662,0.8667,0.8686,0.8694,0.8683,0.8684,0.8738,0.8739,0.874,0.8739,0,0,0,0,0,0,0.8548,0.8555,0.8562,0.8583,0.8591,0.8622,0.8619,0.8622,0.8633,0.8633,0.8652,0.8654,0.8662,0.8684,0.8688,0.8696,0.8686,0.8737,0.8738,0.8739,0.8739,0.874,0.8741,0,0,0,0,0,0.8546,0.856,0.8563,0.8569,0.86,0.8622,0.8626,0.8636,0.8633,0.8641,0.8652,0.8654,0.8693,0.8686,0.8691,0.8699,0.8737,0.8738,0.8739,0.8738,0.874,0.8741,0,0,0,0,0,0,0.8537,0.8563,0.8566,0.8588,0.8603,0.8623,0.8633,0.8637,0.8652,0.8652,0.8662,0.8667,0.8686,0.8694,0.8686,0.8719,0.8715,0.8717,0.8712,0.8714,0.8715,0.8712,0.8687,0,0,0,0,0,0.8539,0.8555,0.8576,0.8593,0.86,0.8616,0.8625,0.8632,0.8647,0.8653,0.8666,0.868,0.8695,0.8705,0.872,0.8741,0.8745,0.8749,0.875,0.8751,0.8752,0.8764,0.8767,0.8743,0.8743,0.8743,0,0,0.854,0.8556,0.8565,0.8592,0.8604,0.862,0.8621,0.8637,0.8649,0.8655,0.8675,0.8685,0.8702,0.8722,0.8731,0.873,0.876,0.8752,0.8753,0.8754,0.8766,0.8768,0.877,0.8744,0.8744,0.8744,0,0,0.8551,0.8565,0.8582,0.8595,0.8615,0.8625,0.8629,0.8649,0.8656,0.8677,0.8682,0.8696,0.8723,0.8735,0.8744,0.8763,0.8765,0.8767,0.8773,0.8784,0.8786,0.8788,0.8795,0.8797,0.8769,0.8769,0.8769,0,0.855,0.8576,0.8589,0.8606,0.8618,0.8626,0.8643,0.8655,0.8677,0.8685,0.8683,0.8718,0.8729,0.8753,0.8758,0.8765,0.877,0.8764,0.8785,0.8787,0.8789,0.8795,0.8798,0.8769,0.8769,0.8769,0.8769,0,0.8574,0.8592,0.8603,0.8627,0.864,0.8656,0.8671,0.8683,0.8689,0.8699,0.872,0.8735,0.8754,0.876,0.8765,0.8785,0.8783,0.8783,0.8779,0.8791,0.8797,0.88,0.8769,0.8769,0.8769,0.8769,0,0,0.858,0.8613,0.8616,0.8628,0.8652,0.8665,0.8683,0.8703,0.8712,0.8728,0.8743,0.8766,0.8767,0.8778,0.8784,0.8795,0.8809,0.8794,0.8794,0.8796,0.8832,0.8831,0.8834,0.8811,0.8812,0.8812,0.883,0,0.8594,0.8627,0.864,0.8666,0.8682,0.8692,0.8707,0.8723,0.8733,0.8748,0.876,0.8776,0.8776,0.8783,0.8793,0.8805,0.8816,0.8804,0.8824,0.8825,0.8819,0.8837,0.8836,0.8852,0.8833,0.8833,0.8833,0,0.8614,0.8633,0.8661,0.8685,0.8692,0.8705,0.8726,0.874,0.8758,0.8765,0.8779,0.8786,0.8804,0.8799,0.8824,0.8816,0.8825,0.8832,0.8833,0.8834,0.8829,0.8839,0.8858,0.886,0.8837,0.8837,0.8837,0,0.8616,0.8648,0.8669,0.8679,0.8706,0.8716,0.8727,0.8745,0.8757,0.8774,0.8782,0.8801,0.881,0.8824,0.8836,0.8832,0.886,0.8857,0.8866,0.8865,0.887,0.887,0.8891,0.8877,0.8877,0.8877,0.8877,0,0.863,0.8647,0.8671,0.8684,0.8703,0.8718,0.8736,0.8748,0.8765,0.878,0.8789,0.8802,0.8817,0.8833,0.8842,0.8861,0.8866,0.8871,0.8873,0.887,0.8869,0.8876,0.8875,0.8878,0.8878,0.8877,0.8877,0,0.8634,0.8651,0.8675,0.87,0.8707,0.872,0.8741,0.8753,0.8765,0.8784,0.879,0.8808,0.8827,0.884,0.8864,0.887,0.8891,0.8893,0.8885,0.8886,0.8895,0.8893,0.892,0.8924,0.8908,0.8908,0.8908,0,0.8642,0.8656,0.8683,0.8695,0.8707,0.8725,0.8738,0.8753,0.8766,0.8789,0.8799,0.8819,0.8836,0.8865,0.888,0.8898,0.8901,0.8909,0.8903,0.89,0.8901,0.89,0.8901,0.8909,0.8909,0.8909,0.8909,0,0.8654,0.8663,0.8681,0.8704,0.8719,0.8737,0.8754,0.8763,0.8781,0.8795,0.8815,0.8829,0.8854,0.8874,0.8894,0.8905,0.891,0.8911,0.8914,0.8911,0.8906,0.8909,0.8887,0.891,0.891,0.891,0.891,0.891,0.8661,0.8674,0.8696,0.8716,0.8732,0.8749,0.8763,0.8777,0.8795,0.8818,0.8826,0.8847,0.8866,0.8894,0.8905,0.8921,0.8921,0.8925,0.8926,0.8927,0.8927,0.8904,0.8925,0.8925,0.8925,0.8925,0.8925,0,0.8673,0.8689,0.8708,0.8733,0.875,0.8756,0.8776,0.8789,0.8808,0.8826,0.8843,0.8867,0.8886,0.8903,0.8923,0.8933,0.8936,0.8938,0.8937,0.8939,0.8926,0.8922,0.8935,0.8935,0.8935,0.8935,0.8935,0.8935,0.8682,0.8705,0.8716,0.8746,0.8761,0.8783,0.8794,0.881,0.8824,0.8851,0.8868,0.888,0.8897,0.8919,0.8937,0.8941,0.8948,0.8949,0.8954,0.8941,0.894,0.8939,0.8934,0.8951,0.8951,0.8966,0.8966,0.8966]},{"header":{"parameterUnit":"m.s-1","parameterCategory":1,"la1":30.2991,"la2":30.254,"lo1":-89.0895,"lo2":-89.0444,"dy":0.0017,"dx":0.0017,"nx":28,"ny":28,"refTime":"2025-11-12T09:00:00:Z","depth":0,"parameterNumber":3,"parameterNumberName":"V-component_of_WINDS"},"data":[0,0,0,0,0,0,0,0,0,0,0,0,0,0,0,0,0,0,0,0,0,0,0,0,0,0,0,0,0,0,0,0,0,0,0,0,0,0,0,0,0,0,0,0,0,0,0,0,0,0,0,0,0,0,0,0,0,0,0.6604,0.6604,0,0.6542,0.6542,0.6541,0.6504,0.6504,0.6504,0.6503,0.6436,0.6434,0.6432,0,0,0,0,0,0,0,0,0,0,0,0,0,0.6688,0.6686,0.6604,0.6604,0.6603,0.6542,0.6542,0.6541,0.6504,0.6504,0.6504,0.6503,0.6436,0.6434,0.6432,0,0,0,0,0,0,0,0,0,0,0,0,0,0.6641,0.6686,0.6605,0.6577,0.6574,0.6543,0.6542,0.654,0.6504,0.6504,0.6503,0.6503,0.6437,0.6434,0.6432,0.6421,0,0,0.6424,0.6423,0,0,0,0,0,0,0,0,0.6644,0.6638,0.6582,0.6579,0.6576,0.6531,0.6546,0.65,0.6504,0.6531,0.6503,0.6503,0.6467,0.6462,0.6451,0.6418,0.6415,0.6424,0.6423,0.6422,0.6421,0,0,0,0,0,0,0,0.6647,0.6641,0.658,0.6581,0.6577,0.6567,0.656,0.6537,0.6501,0.6528,0.6525,0.6519,0.6465,0.6453,0.6449,0.6414,0.6424,0.6422,0.642,0.6419,0.637,0.637,0,0,0,0,0,0,0.6655,0.6644,0.6582,0.6578,0.661,0.6566,0.6558,0.6545,0.6501,0.6494,0.6519,0.6517,0.6458,0.6452,0.6446,0.6432,0.6422,0.6419,0.6418,0.637,0.637,0.637,0,0,0,0,0,0,0.6657,0.665,0.6584,0.661,0.6601,0.6565,0.6551,0.6544,0.6532,0.6494,0.6487,0.6514,0.6457,0.645,0.6428,0.6429,0.6418,0.6416,0.637,0.637,0.637,0.6402,0,0,0,0,0,0,0.666,0.6651,0.6647,0.661,0.66,0.6568,0.6551,0.6543,0.6529,0.6526,0.6487,0.6481,0.6457,0.6432,0.6426,0.6425,0.6414,0.6369,0.637,0.637,0.6401,0.6403,0.6405,0,0,0,0,0,0.6663,0.6658,0.6647,0.664,0.6594,0.6568,0.6562,0.6536,0.6529,0.6524,0.65,0.6482,0.643,0.643,0.6423,0.6421,0.6369,0.637,0.637,0.64,0.6403,0.6405,0,0,0,0,0,0,0.6694,0.6652,0.664,0.6623,0.66,0.6562,0.6556,0.654,0.6517,0.6515,0.6482,0.6473,0.6455,0.6436,0.6437,0.6409,0.6397,0.6396,0.6422,0.6425,0.6427,0.6433,0.6412,0,0,0,0,0,0.6699,0.6683,0.6646,0.6635,0.6624,0.6592,0.658,0.6562,0.6535,0.6525,0.6499,0.6473,0.6451,0.6437,0.6414,0.6398,0.6389,0.6393,0.6395,0.6397,0.6397,0.6387,0.6389,0.6372,0.6372,0.6372,0,0,0.6709,0.6684,0.6675,0.664,0.662,0.6603,0.6584,0.6566,0.6553,0.6521,0.65,0.648,0.6449,0.643,0.6421,0.6414,0.64,0.6398,0.64,0.6398,0.6388,0.639,0.6391,0.6372,0.6372,0.6372,0,0,0.6719,0.6698,0.6687,0.6667,0.6638,0.6617,0.6614,0.6579,0.6565,0.6543,0.652,0.6503,0.6465,0.6444,0.6429,0.6432,0.6414,0.6425,0.6438,0.6429,0.643,0.6431,0.6433,0.6433,0.6425,0.6425,0.6425,0,0.6734,0.6709,0.6682,0.6667,0.6652,0.6625,0.6613,0.6594,0.6558,0.6548,0.6541,0.6495,0.6472,0.6448,0.6449,0.6437,0.6432,0.6429,0.6432,0.6433,0.6434,0.6435,0.6435,0.6426,0.6426,0.6426,0.6426,0,0.673,0.6713,0.6707,0.6675,0.6659,0.6645,0.6616,0.6603,0.6587,0.6566,0.6544,0.6516,0.6488,0.6481,0.6463,0.6454,0.6451,0.6439,0.6426,0.6437,0.6438,0.6438,0.6429,0.6428,0.6428,0.6427,0,0,0.6757,0.6712,0.671,0.6695,0.6661,0.6646,0.6631,0.6605,0.6595,0.6571,0.6557,0.6527,0.6515,0.6498,0.6478,0.647,0.6475,0.6458,0.6457,0.6463,0.6464,0.6474,0.6475,0.6463,0.6463,0.6463,0.6466,0,0.6762,0.6735,0.6711,0.6692,0.6676,0.665,0.6637,0.6614,0.6594,0.6577,0.6554,0.6534,0.652,0.6509,0.65,0.6476,0.6475,0.6475,0.6449,0.6449,0.6458,0.6475,0.6485,0.649,0.6466,0.6466,0.6466,0,0.6764,0.6743,0.6723,0.6692,0.6684,0.6673,0.6647,0.6631,0.6604,0.6591,0.6572,0.6552,0.6533,0.6523,0.6497,0.6499,0.6486,0.6473,0.6472,0.6469,0.6458,0.6472,0.6491,0.6492,0.6466,0.6466,0.6466,0,0.6786,0.6753,0.6737,0.6726,0.6688,0.6681,0.6665,0.6638,0.6624,0.6601,0.6592,0.6567,0.6553,0.6534,0.6507,0.6502,0.6484,0.6471,0.6472,0.6472,0.6469,0.647,0.6486,0.6461,0.6461,0.6461,0.6461,0,0.6795,0.6784,0.6747,0.6738,0.6724,0.6697,0.6684,0.6665,0.6642,0.6627,0.6603,0.6589,0.6555,0.6537,0.6515,0.6498,0.6491,0.6479,0.6474,0.6482,0.6484,0.6474,0.6473,0.6461,0.6461,0.6461,0.6461,0,0.6817,0.6793,0.6774,0.6741,0.6732,0.6724,0.6695,0.6684,0.6664,0.6646,0.664,0.6607,0.6585,0.6557,0.6525,0.651,0.6495,0.6486,0.6505,0.6502,0.6504,0.6505,0.6515,0.6515,0.6489,0.649,0.649,0,0.6825,0.6816,0.6782,0.6772,0.6757,0.674,0.6726,0.6699,0.6685,0.6655,0.6648,0.6624,0.6604,0.6569,0.6542,0.6518,0.6508,0.6514,0.6504,0.6513,0.6509,0.651,0.6509,0.6516,0.6517,0.6517,0.6517,0,0.684,0.6829,0.6811,0.6789,0.6774,0.6755,0.6735,0.6727,0.6695,0.6681,0.6659,0.6644,0.6612,0.6589,0.6562,0.6543,0.6525,0.6521,0.6519,0.6528,0.6539,0.6534,0.6512,0.652,0.652,0.652,0.652,0.652,0.6856,0.6847,0.6823,0.6804,0.6786,0.6768,0.6757,0.6736,0.6718,0.6691,0.6676,0.6655,0.6628,0.6589,0.6572,0.6554,0.6547,0.6545,0.6545,0.6545,0.6548,0.6542,0.6549,0.6549,0.6549,0.6549,0.6548,0,0.687,0.6854,0.6837,0.681,0.6796,0.6781,0.6758,0.6746,0.6729,0.6706,0.6688,0.6663,0.664,0.6612,0.6587,0.6579,0.657,0.6573,0.6574,0.657,0.6555,0.6559,0.6581,0.6581,0.6581,0.6581,0.6581,0.6581,0.6876,0.6862,0.6848,0.6824,0.6806,0.6787,0.6775,0.6758,0.6741,0.6715,0.6697,0.6679,0.6654,0.6628,0.6606,0.6598,0.659,0.6597,0.6586,0.6574,0.6571,0.6568,0.6571,0.6595,0.6595,0.6602,0.6602,0.6602]}]]